Weather in Voronezh

Russia / Voronezh Oblast     51°39′38″N   39°12′00″E
temp.,
°C
wind,
m/s
gust,
m/s
humid.,
%
clouds,
%
prec.,
mm/h
press.,
hPa
HPBL,
m
25 february, thu
thu2500:00−12ssw4995100 0.6 1035429
03:00−11ssw4994100 1.1 1033421
06:00−9ssw4994100 0.2 1030394
09:00−7sw4994100 0.3 1027397
12:00−2sw51094100 0.1 1024471
15:00+1sw51397100 0.2 1021484
18:00+2w51398100 0.4 1019450
21:00+1w41099100 0.5 1019295
26 february, fri
fri2600:00+1w31099100 0.1 1019344
03:00+1wnw41198100 0.2 1020323
06:00+2wnw31199100 0.1 1018339
09:00+2w41199100 0.1 1018318
12:00+2w41199100 0.0 1016363
15:00+3wsw61398100 0.0 1015547
18:00+3w51498100 0.3 1012560
21:00+3w51396100 0.4 1012528
27 february, sat
sat2700:00+2wnw41196100 0.0 1011520
03:00+1w41094100 0.0 1010432
06:00+1w41194100 0.0 1008503
09:00+1wnw51194100 0.1 1008687
12:00+2w51092100 0.0 1008729
15:00+2w51191100 0.1 1008764
18:00+1wnw51197100 0.1 1007618
21:000wnw399899 0.2 1009424
28 february, sun
sun2800:000wnw3991100 0.1 1009460
03:00−1nnw3794100 0.2 1011364
06:00−2n498683 0.1 1013661
09:00−3n358390 0.1 1015633
12:00−3nnw467999 0.1 1016674
15:00−3nnw477899 0.1 1018653
18:00−3nnw588393 0.1 1019767
21:00−3n398792 0.1 1021693
1 march, mon
mon100:00−3n379072 0.0 1023676
03:00−4nnw369376 0.1 1024401
06:00−5n398682 0.1 1026629
09:00−5n268567 0.1 1028433
12:00−3nnw357490 0.1 1029871
15:00−2nnw357195 0.1 1030875
18:00−4nw358172 0.0 1030494
21:00−4wnw268436 0.0 1030356